This is the latest recevied weather packets stored in our database for station/object VR2HK-13. If no packets are shown the sender has not sent any weather packets the latest 1 day(s).
| Time | Temp. | Humidity | Pressure | Rain* | Wind** | Luminosity | Snow |
|---|---|---|---|---|---|---|---|
| 1778039847 | 23.33° C | 82% | 1014 hPa | 0 mm | 1.79 m/s, 39° | - | - |
| 1778039704 | 23.33° C | 82% | 1014 hPa | 0 mm | 0.45 m/s, 273° | - | - |
| 1778039405 | 23.33° C | 81% | 1014 hPa | 0 mm | 0.45 m/s, 217° | - | - |
| 1778039226 | 23.33° C | 81% | 1013.9 hPa | 0 mm | 2.24 m/s, 248° | - | - |
| 1778039105 | 23.33° C | 82% | 1014 hPa | 0 mm | 0.45 m/s, 13° | - | - |
| 1778038916 | 23.33° C | 82% | 1013.9 hPa | 0 mm | 2.24 m/s, 163° | - | - |
| 1778038805 | 23.33° C | 82% | 1013.9 hPa | 0 mm | 1.34 m/s, 253° | - | - |
| 1778038606 | 23.33° C | 82% | 1013.9 hPa | 0 mm | 2.68 m/s, 124° | - | - |
| 1778038504 | 23.33° C | 82% | 1014 hPa | 0 mm | 0 m/s | - | - |
| 1778038205 | 23.89° C | 81% | 1014.1 hPa | 0 mm | 3.58 m/s, 63° | - | - |
| 1778037986 | 23.89° C | 81% | 1014 hPa | 0 mm | 0.89 m/s, 272° | - | - |
| 1778037905 | 23.89° C | 81% | 1014 hPa | 0 mm | 0.45 m/s, 42° | - | - |
| 1778037676 | 23.89° C | 81% | 1014 hPa | 0 mm | 0.45 m/s, 218° | - | - |
| 1778037605 | 23.89° C | 81% | 1014 hPa | 0 mm | 0.45 m/s, 42° | - | - |
| 1778037366 | 23.89° C | 81% | 1014 hPa | 0 mm | 1.34 m/s, 337° | - | - |
| 1778037304 | 23.89° C | 81% | 1014 hPa | 0 mm | 0.89 m/s, 27° | - | - |
| 1778037056 | 23.33° C | 81% | 1013.9 hPa | 0 mm | 1.34 m/s, 237° | - | - |
| 1778037005 | 23.33° C | 81% | 1013.9 hPa | 0 mm | 0.89 m/s, 90° | - | - |
| 1778036746 | 23.33° C | 81% | 1013.9 hPa | 0 mm | 2.24 m/s, 38° | - | - |
| 1778036704 | 23.33° C | 81% | 1013.8 hPa | 0 mm | 2.24 m/s, 343° | - | - |
| 1778036436 | 23.33° C | 81% | 1013.9 hPa | 0 mm | 0.89 m/s, 327° | - | - |
| 1778036404 | 23.33° C | 81% | 1013.9 hPa | 0 mm | 0.45 m/s, 339° | - | - |
| 1778036126 | 23.33° C | 81% | 1013.9 hPa | 0 mm | 2.24 m/s, 340° | - | - |
| 1778036105 | 23.33° C | 81% | 1013.9 hPa | 0 mm | 2.24 m/s, 38° | - | - |
| 1778035815 | 23.33° C | 81% | 1013.9 hPa | 0 mm | 3.13 m/s, 126° | - | - |
* Rain latest hour (hover to see other rain measurements)
** Current wind speed in m/s (hover to see current wind gust speed)